Flag for Argentina Weather past 2 weeks in Río Grande, Tierra del Fuego, Argentina

Now
25 °F

Clear.


Feels Like: 25 °F
Forecast: 32 / 42 °F
Wind: 2 mph from Southwest

Location: Rio Grande B. A.

Current Time: Aug 23, 2014 at 3:06:28 AM

Latest Report: Aug 23, 2014 at 2:00 AM


Visibility: 10 mi

Pressure: 30.18 "Hg

Humidity: 100%

Dew point: 25 °F

Location of Río GrandeLocation

Historic Weather in Río Grande — Graph

°F

Río Grande temperature yesterday

Maximum temperature yesterday: 43 °F (at 5:00 PM)
Minimum temperature yesterday: 21 °F (at 6:00 AM)
Average temperature yesterday: 30 °F

Past Weeks' High & Low Weather Summary

 TemperatureHumidityPressure
High59 °F (Aug 16, 3:00 AM)100% (Aug 9, 10:00 AM)30.18 "Hg (Aug 9, 10:00 AM)
Low21 °F (Aug 22, 6:00 AM)39% (Aug 16, 3:00 AM)28.77 "Hg (Aug 8, 3:00 PM)
Average35 °F87%29.49 "Hg
* Reported Aug 8 3:00 AM — Aug 23 2:00 AM, Río Grande, Weather by CustomWeather, © 2014

Note: Actual official high and low records may vary slightly from our data, if they occured in-between our weather recording intervals... More about our weather records

Advertising

Río Grande weather history for previous 24 hours

 ConditionsComfort  
Time TempWeatherWind HumidityBarometerVisibility
2:00 AM
Aug 23
25 °FClear.2 mph100%30.18 "Hg10 mi
1:00 AM27 °FClear.3 mph93%30.18 "Hg10 mi
12:00 AM28 °FPassing clouds.No wind93%30.15 "HgN/A
11:00 PM
Aug 22
28 °FClear.2 mph100%30.15 "Hg10 mi
10:00 PM30 °FClear.3 mph93%30.12 "Hg10 mi
9:00 PM30 °FPassing clouds.No wind93%30.12 "HgN/A
8:00 PM30 °FChilly.No wind93%30.12 "HgN/A
7:00 PM32 °FFog.5 mphN/AN/A0 mi
6:00 PM32 °FFog.6 mphN/AN/A1 mi
5:00 PM43 °FSunny.No wind76%30.09 "Hg10 mi
4:00 PM41 °FSunny.1 mph81%30.09 "Hg10 mi
3:00 PM39 °FSunny.1 mph87%30.09 "Hg10 mi
2:00 PM37 °FSunny.2 mph93%30.09 "Hg10 mi
1:00 PM36 °FFog.2 mph100%30.12 "Hg1 mi
12:00 PM34 °FFog.No wind81%30.12 "Hg2 mi
11:00 AM28 °FPartly sunny.3 mph93%30.12 "HgN/A
10:00 AM25 °FScattered clouds.3 mph86%30.12 "HgN/A
9:00 AM25 °FSunny.3 mph86%30.12 "Hg10 mi
8:00 AM21 °FSunny.3 mph86%30.09 "Hg10 mi
7:00 AM21 °FClear.3 mph86%30.09 "Hg10 mi
6:00 AM21 °FClear.2 mph86%30.09 "Hg10 mi
5:00 AM23 °FClear.No wind80%30.09 "Hg10 mi
4:00 AM25 °FClear.6 mph80%30.09 "Hg10 mi
3:00 AM27 °FClear.3 mph86%30.09 "Hg10 mi
Weather by CustomWeather, © 2014

See weather overviewHow to use our weather pages